CW0069 Weather Reports


Display with metric or nautical units.
time (UTC)temp
F
wind
direction
speed
MPH
gust
MPH
rain 1hr
in
rain 24hr
in
rain mn
in
humidity
%
barometer
mb
20260902154904 91 83 1.0 5.0 0.00 0.00 0.00 48 1013.6
20260902154404 90 23 4.0 6.0 0.00 0.00 0.00 49 1013.6
20260902153904 90 54 3.0 6.0 0.00 0.00 0.00 51 1013.6
20260902153404 90 87 1.0 3.0 0.00 0.00 0.00 50 1013.6
20260902152904 89 79 2.0 6.0 0.00 0.00 0.00 50 1013.6
20260902152405 89 44 3.0 9.0 0.00 0.00 0.00 51 1013.6
20260902151904 89 65 2.0 5.0 0.00 0.00 0.00 52 1013.4
20260902151403 89 25 4.0 6.0 0.00 0.00 0.00 52 1013.5
20260902150904 88 57 3.0 7.0 0.00 0.00 0.00 53 1013.6
20260902150404 88 43 5.0 9.0 0.00 0.00 0.00 53 1013.5
20260902145404 87 44 4.0 8.0 0.00 0.00 0.00 55 1013.4
20260902144904 87 44 3.0 8.0 0.00 0.00 0.00 55 1013.5
20260902144404 87 28 3.0 6.0 0.00 0.00 0.00 56 1013.5
20260902143404 86 48 2.0 3.0 0.00 0.00 0.00 56 1013.5
20260902142904 85 47 3.0 8.0 0.00 0.00 0.00 57 1013.5
20260902142405 85 89 3.0 7.0 0.00 0.00 0.00 57 1013.4
20260902141904 85 86 3.0 5.0 0.00 0.00 0.00 58 1013.4
20260902141404 85 50 5.0 9.0 0.00 0.00 0.00 58 1013.4
20260902140904 84 47 2.0 8.0 0.00 0.00 0.00 58 1013.4
20260902140404 84 51 4.0 7.0 0.00 0.00 0.00 59 1013.4
20260902135404 83 82 3.0 6.0 0.00 0.00 0.00 60 1013.3
20260902134904 82 55 5.0 9.0 0.00 0.00 0.00 60 1013.3
20260902134404 82 58 4.0 6.0 0.00 0.00 0.00 61 1013.3
20260902133904 81 54 3.0 7.0 0.00 0.00 0.00 62 1013.2
20260902133404 81 61 3.0 8.0 0.00 0.00 0.00 61 1013.2
20260902132903 80 52 3.0 5.0 0.00 0.00 0.00 62 1013.3
20260902132403 80 63 2.0 3.0 0.00 0.00 0.00 62 1013.2
20260902131405 97 55 3.0 5.0 0.00 0.00 0.00 34 1013.3
20260902130403 97 100 2.0 6.0 0.00 0.00 0.00 34 1013.3
20260902125404 97 106 0.0 2.0 0.00 0.00 0.00 34 1013.4
20260902124904 97 106 1.0 3.0 0.00 0.00 0.00 34 1013.3
20260902124404 97 106 1.0 3.0 0.00 0.00 0.00 34 1013.3
20260902123904 97 107 0.0 2.0 0.00 0.00 0.00 34 1013.3
20260902123404 97 107 1.0 3.0 0.00 0.00 0.00 34 1013.2
20260902122904 97 107 1.0 3.0 0.00 0.00 0.00 34 1013.1
20260902122404 97 10 2.0 3.0 0.00 0.00 0.00 34 1013.0
20260902121904 97 0 1.0 3.0 0.00 0.00 0.00 34 1013.1
20260902121404 97 4 1.0 3.0 0.00 0.00 0.00 34 1013.0
20260902120904 97 0 1.0 2.0 0.00 0.00 0.00 34 1013.1
20260902120404 97 0 1.0 2.0 0.00 0.00 0.00 34 1013.1
20260902115904 97 0 1.0 2.0 0.00 0.00 0.00 34 1013.1
20260902114904 97 0 0.0 0.0 0.00 0.00 0.00 34 1012.9
20260902114404 97 0 0.0 0.0 0.00 0.00 0.00 34 1012.9
20260902113904 97 0 0.0 0.0 0.00 0.00 0.00 34 1012.9
20260902113404 97 0 0.0 0.0 0.00 0.00 0.00 34 1013.0
20260902112904 97 0 0.0 0.0 0.00 0.00 0.00 34 1013.0
20260902112404 97 0 0.0 1.0 0.00 0.00 0.00 34 1013.0
20260902111904 97 0 0.0 2.0 0.00 0.00 0.00 34 1012.9
20260902111404 97 0 1.0 3.0 0.00 0.00 0.00 34 1013.0
20260902110904 97 0 0.0 2.0 0.00 0.00 0.00 34 1013.0
20260902110404 97 2 0.0 0.0 0.00 0.00 0.00 34 1013.0
20260902105904 97 0 0.0 0.0 0.00 0.00 0.00 34 1013.0
20260902105404 97 0 0.0 0.0 0.00 0.00 0.00 34 1013.0
20260902104904 97 0 0.0 2.0 0.00 0.00 0.00 34 1012.9
20260902102904 97 0 0.0 0.0 0.00 0.00 0.00 34 1012.9
20260902102404 97 0 0.0 0.0 0.00 0.00 0.00 34 1012.9
20260902101904 97 0 0.0 0.0 0.00 0.00 0.00 34 1012.8
20260902101404 97 0 0.0 0.0 0.00 0.00 0.00 34 1012.9
20260902100904 97 0 0.0 1.0 0.00 0.00 0.00 34 1012.8
20260902100404 97 0 0.0 0.0 0.00 0.00 0.00 34 1012.9
20260902095904 97 0 0.0 1.0 0.00 0.00 0.00 34 1012.9
20260902095404 97 4 0.0 1.0 0.00 0.00 0.00 34 1012.8
20260902094904 97 0 0.0 0.0 0.00 0.00 0.00 34 1012.8
20260902094404 97 0 0.0 0.0 0.00 0.00 0.00 34 1012.7
20260902093905 97 0 0.0 0.0 0.00 0.00 0.00 34 1012.7
20260902093404 97 0 0.0 0.0 0.00 0.00 0.00 34 1012.6
20260902092403 97 119 0.0 0.0 0.00 0.00 0.00 34 1012.7
20260902091904 97 119 0.0 0.0 0.00 0.00 0.00 34 1012.7
20260902091404 97 119 0.0 0.0 0.00 0.00 0.00 34 1012.6
20260902090904 97 119 0.0 0.0 0.00 0.00 0.00 34 1012.6
20260902090404 97 119 0.0 0.0 0.00 0.00 0.00 34 1012.6
20260902085404 97 119 0.0 0.0 0.00 0.00 0.00 34 1012.5
20260902084404 97 119 0.0 0.0 0.00 0.00 0.00 34 1012.5
20260902083904 97 119 0.0 0.0 0.00 0.00 0.00 34 1012.5
20260902083404 97 119 0.0 0.0 0.00 0.00 0.00 34 1012.5
20260902082905 97 119 0.0 0.0 0.00 0.00 0.00 34 1012.4
20260902082404 97 119 0.0 0.0 0.00 0.00 0.00 34 1012.5
20260902081905 97 119 0.0 0.0 0.00 0.00 0.00 34 1012.4
20260902081404 97 119 0.0 0.0 0.00 0.00 0.00 34 1012.4
20260902080904 97 119 0.0 0.0 0.00 0.00 0.00 34 1012.4
20260902075904 97 119 0.0 0.0 0.00 0.00 0.00 34 1012.5
20260902074904 97 119 0.0 0.0 0.00 0.00 0.00 34 1012.5
20260902074404 97 119 0.0 0.0 0.00 0.00 0.00 34 1012.5
20260902073905 97 119 0.0 0.0 0.00 0.00 0.00 34 1012.5
20260902073404 97 119 0.0 0.0 0.00 0.00 0.00 34 1012.5
20260902072904 97 119 0.0 0.0 0.00 0.00 0.00 34 1012.6
20260902072404 97 119 0.0 0.0 0.00 0.00 0.00 34 1012.6
20260902071904 97 119 0.0 1.0 0.00 0.00 0.00 34 1012.6
20260902071404 97 119 0.0 2.0 0.00 0.00 0.00 34 1012.6
20260902070904 97 119 1.0 2.0 0.00 0.00 0.00 34 1012.7
20260902065904 97 119 1.0 2.0 0.00 0.00 0.00 34 1012.7
20260902064405 97 119 2.0 3.0 0.00 0.00 0.00 34 1012.8
20260902063904 97 119 1.0 3.0 0.00 0.00 0.00 34 1012.7
20260902063404 97 119 2.0 3.0 0.00 0.00 0.00 34 1012.7
20260902062904 97 118 1.0 2.0 0.00 0.00 0.00 34 1012.7
20260902062404 97 118 1.0 2.0 0.00 0.00 0.00 34 1012.7
20260902060904 97 118 1.0 3.0 0.00 0.00 0.00 34 1012.7
20260902060404 97 119 1.0 3.0 0.00 0.00 0.00 34 1012.7
20260902055904 97 119 1.0 5.0 0.00 0.00 0.00 34 1012.7
20260902055404 97 118 3.0 6.0 0.00 0.00 0.00 34 1012.7
20260902054904 97 117 3.0 3.0 0.00 0.00 0.00 34 1012.7
20260902054404 97 111 2.0 6.0 0.00 0.00 0.00 34 1012.6
20260902053404 97 117 2.0 6.0 0.00 0.00 0.00 34 1012.6
20260902052904 97 119 2.0 3.0 0.00 0.00 0.00 34 1012.6
20260902052404 97 121 5.0 9.0 0.00 0.00 0.00 34 1012.6
20260902051904 97 119 4.0 7.0 0.00 0.00 0.00 34 1012.6
20260902051404 97 100 3.0 7.0 0.00 0.00 0.00 34 1012.5
20260902050904 97 115 3.0 7.0 0.00 0.00 0.00 34 1012.5
20260902050404 97 107 4.0 8.0 0.00 0.00 0.00 34 1012.5
20260902045904 97 113 2.0 6.0 0.00 0.00 0.00 34 1012.6
20260902045404 97 109 3.0 8.0 0.00 0.00 0.00 34 1012.6
20260902044903 97 116 3.0 9.0 0.00 0.00 0.00 34 1012.5
20260902044404 97 111 4.0 7.0 0.00 0.00 0.00 34 1012.6
20260902043904 97 102 4.0 8.0 0.00 0.00 0.00 34 1012.6
20260902043404 97 108 3.0 8.0 0.00 0.00 0.00 34 1012.5
20260902042403 97 133 3.0 8.0 0.00 0.00 0.00 34 1012.5
20260902041904 97 125 4.0 7.0 0.00 0.00 0.00 34 1012.5
20260902041404 97 118 6.0 9.0 0.00 0.00 0.00 34 1012.4
20260902040905 97 107 6.0 12.0 0.00 0.00 0.00 34 1012.3
20260902040404 97 112 5.0 10.0 0.00 0.00 0.00 34 1012.4
20260902035903 97 107 3.0 12.0 0.00 0.00 0.00 34 1012.4
20260902035404 97 124 5.0 12.0 0.00 0.00 0.00 34 1012.2
20260902034404 97 105 6.0 12.0 0.00 0.00 0.00 34 1012.3
20260902033904 97 114 6.0 9.0 0.00 0.00 0.00 34 1012.2
20260902033404 97 118 5.0 10.0 0.00 0.00 0.00 34 1012.3
20260902032905 97 116 6.0 12.0 0.00 0.00 0.00 34 1012.1
20260902032404 97 95 6.0 12.0 0.00 0.00 0.00 34 1012.1
20260902031904 97 109 6.0 16.0 0.00 0.00 0.00 34 1012.0
20260902031403 97 96 4.0 10.0 0.00 0.00 0.00 34 1012.0
20260902030904 97 100 2.0 3.0 0.00 0.00 0.00 34 1011.7
20260902030404 97 117 1.0 2.0 0.00 0.00 0.00 34 1011.5
20260902025904 97 117 1.0 3.0 0.00 0.00 0.00 34 1011.6
20260902025404 97 117 0.0 2.0 0.00 0.00 0.00 34 1011.5
20260902024904 97 117 1.0 2.0 0.00 0.00 0.00 34 1011.3
20260902024405 97 117 1.0 2.0 0.00 0.00 0.00 34 1011.3
20260902023904 97 117 0.0 1.0 0.00 0.00 0.00 34 1011.2
20260902023404 97 117 0.0 0.0 0.00 0.00 0.00 34 1011.2
20260902022904 97 117 0.0 1.0 0.00 0.00 0.00 34 1011.1
20260902022404 97 117 0.0 2.0 0.00 0.00 0.00 34 1011.0
20260902020904 97 118 1.0 3.0 0.00 0.00 0.00 34 1010.8
20260902020404 97 118 1.0 3.0 0.00 0.00 0.00 34 1010.8
20260902015904 97 111 2.0 3.0 0.00 0.00 0.00 34 1010.7
20260902015404 97 71 2.0 3.0 0.00 0.00 0.00 34 1010.7
20260902014904 97 71 2.0 5.0 0.00 0.00 0.00 34 1010.5
20260902014404 97 65 2.0 5.0 0.00 0.00 0.00 34 1010.5
20260902013904 97 60 2.0 3.0 0.00 0.00 0.00 34 1010.4
20260902012904 97 60 2.0 3.0 0.00 0.00 0.00 34 1010.4
20260902012404 97 61 2.0 3.0 0.00 0.00 0.00 34 1010.3
20260902011903 97 58 2.0 3.0 0.00 0.00 0.00 34 1010.3
20260902011403 97 58 1.0 3.0 0.00 0.00 0.00 34 1010.2
20260902010903 97 58 1.0 5.0 0.00 0.00 0.00 34 1010.2
20260902010404 97 60 2.0 5.0 0.00 0.00 0.00 34 1010.1
20260902005904 97 63 1.0 6.0 0.00 0.00 0.00 34 1010.1
20260902004904 97 301 2.0 3.0 0.00 0.00 0.00 34 1010.2
20260902004404 97 349 8.0 18.0 0.00 0.00 0.00 34 1010.3
20260902003904 97 31 12.0 20.0 0.00 0.00 0.00 34 1010.2
20260902003404 97 58 6.0 14.0 0.00 0.00 0.00 34 1010.1
20260902002905 97 53 7.0 12.0 0.00 0.00 0.00 34 1010.2
20260902001904 97 49 0.0 0.0 0.00 0.00 0.00 34 1010.1
20260902001404 97 49 0.0 0.0 0.00 0.00 0.00 34 1010.1
20260902000406 97 49 0.0 1.0 0.00 0.00 0.00 34 1010.2
20260901235904 97 49 0.0 0.0 0.00 0.00 0.00 34 1010.2
20260901235403 97 49 0.0 1.0 0.00 0.00 0.00 34 1010.2
20260901234404 97 49 1.0 3.0 0.00 0.00 0.00 34 1010.3
20260901233904 97 50 1.0 3.0 0.00 0.00 0.00 34 1010.4
20260901233403 97 50 1.0 2.0 0.00 0.00 0.00 34 1010.4
20260901232903 97 50 0.0 3.0 0.00 0.00 0.00 34 1010.3
20260901232404 97 49 1.0 2.0 0.00 0.00 0.00 34 1010.4
20260901231904 97 49 1.0 3.0 0.00 0.00 0.00 35 1010.4
20260901231404 97 52 1.0 3.0 0.00 0.00 0.00 34 1010.5
20260901230904 97 59 0.0 2.0 0.00 0.00 0.00 33 1010.4
20260901230403 97 59 3.0 5.0 0.00 0.00 0.00 33 1010.4
20260901225903 98 82 2.0 3.0 0.00 0.00 0.00 33 1010.5
20260901225404 98 82 2.0 3.0 0.00 0.00 0.00 33 1010.5
20260901224904 98 57 2.0 3.0 0.00 0.00 0.00 33 1010.4
20260901224404 98 57 3.0 6.0 0.00 0.00 0.00 33 1010.5
20260901223904 98 93 2.0 5.0 0.00 0.00 0.00 34 1010.5
20260901223403 99 51 3.0 10.0 0.00 0.00 0.00 33 1010.5
20260901222904 99 61 5.0 12.0 0.00 0.00 0.00 34 1010.5
20260901222404 98 74 6.0 12.0 0.00 0.00 0.00 33 1010.5
20260901221904 98 53 3.0 7.0 0.00 0.00 0.00 33 1010.4
20260901221404 98 82 3.0 9.0 0.00 0.00 0.00 33 1010.6
20260901220904 98 56 1.0 3.0 0.00 0.00 0.00 33 1010.6
20260901220403 97 77 3.0 6.0 0.00 0.00 0.00 34 1010.6
20260901215904 97 91 1.0 6.0 0.00 0.00 0.00 34 1010.6
20260901215404 97 67 5.0 8.0 0.00 0.00 0.00 34 1010.8
20260901214904 97 72 3.0 7.0 0.00 0.00 0.00 34 1010.8
20260901214403 97 69 3.0 6.0 0.00 0.00 0.00 34 1010.8
20260901213404 97 58 4.0 8.0 0.00 0.00 0.00 33 1010.9
20260901212904 97 71 2.0 5.0 0.00 0.00 0.00 34 1010.9
20260901212403 97 69 2.0 8.0 0.00 0.00 0.00 34 1011.0
20260901211904 97 67 3.0 12.0 0.00 0.00 0.00 34 1010.9
20260901211404 98 98 3.0 7.0 0.00 0.00 0.00 33 1011.0
20260901210904 98 80 3.0 7.0 0.00 0.00 0.00 33 1011.1
20260901210403 98 111 4.0 7.0 0.00 0.00 0.00 32 1011.2
20260901205904 98 37 5.0 9.0 0.00 0.00 0.00 32 1011.1
20260901205404 98 43 2.0 7.0 0.00 0.00 0.00 33 1011.2
20260901204904 98 54 5.0 8.0 0.00 0.00 0.00 33 1011.2
20260901204404 98 69 2.0 7.0 0.00 0.00 0.00 32 1011.2
20260901203904 99 47 3.0 7.0 0.00 0.00 0.00 31 1011.2
20260901202904 100 55 4.0 8.0 0.00 0.00 0.00 31 1011.3
20260901202403 100 34 2.0 3.0 0.00 0.00 0.00 32 1011.3
20260901201904 100 292 3.0 7.0 0.00 0.00 0.00 30 1011.4
20260901201404 101 314 4.0 10.0 0.00 0.00 0.00 30 1011.4
20260901200906 101 236 5.0 12.0 0.00 0.00 0.00 32 1011.5
20260901195904 100 215 1.0 3.0 0.00 0.00 0.00 32 1011.6
20260901195403 100 117 1.0 5.0 0.00 0.00 0.00 32 1011.6
20260901194404 100 283 2.0 3.0 0.00 0.00 0.00 32 1011.8
20260901193904 100 280 2.0 3.0 0.00 0.00 0.00 33 1011.9
20260901193404 100 306 3.0 9.0 0.00 0.00 0.00 31 1012.0
20260901192903 101 309 3.0 9.0 0.00 0.00 0.00 32 1012.0
20260901192404 101 19 2.0 7.0 0.00 0.00 0.00 34 1012.1
20260901191404 101 224 2.0 9.0 0.00 0.00 0.00 33 1012.1
20260901190904 101 248 6.0 12.0 0.00 0.00 0.00 32 1012.2
20260901185403 100 240 1.0 3.0 0.00 0.00 0.00 34 1012.6
20260901184904 100 67 3.0 9.0 0.00 0.00 0.00 31 1012.6
20260901184404 101 351 3.0 8.0 0.00 0.00 0.00 33 1012.6
20260901183903 101 120 4.0 8.0 0.00 0.00 0.00 32 1012.8
20260901183404 100 116 2.0 8.0 0.00 0.00 0.00 33 1013.0
20260901182404 100 136 0.0 3.0 0.00 0.00 0.00 33 1013.0
20260901181904 100 109 2.0 5.0 0.00 0.00 0.00 34 1013.2
20260901181404 99 22 2.0 7.0 0.00 0.00 0.00 35 1013.4
20260901180903 98 136 1.0 5.0 0.00 0.00 0.00 35 1013.5
20260901180404 98 136 6.0 8.0 0.00 0.00 0.00 37 1013.5
20260901175903 98 155 3.0 5.0 0.00 0.00 0.00 37 1013.7
20260901175404 97 171 3.0 6.0 0.00 0.00 0.00 38 1013.8
20260901174904 96 221 2.0 6.0 0.00 0.00 0.00 39 1013.8
20260901173404 95 172 3.0 5.0 0.00 0.00 0.00 39 1014.1
20260901172903 96 217 3.0 6.0 0.00 0.00 0.00 38 1014.1
20260901172403 96 256 3.0 8.0 0.00 0.00 0.00 37 1014.3
20260901171904 96 263 5.0 9.0 0.00 0.00 0.00 38 1014.2
20260901171403 97 269 4.0 8.0 0.00 0.00 0.00 37 1014.3
20260901170904 98 212 3.0 6.0 0.00 0.00 0.00 37 1014.4
20260901170404 98 235 5.0 7.0 0.00 0.00 0.00 36 1014.4
20260901165904 98 232 3.0 5.0 0.00 0.00 0.00 35 1014.4
20260901165403 98 208 2.0 3.0 0.00 0.00 0.00 38 1014.4
20260901163904 96 127 2.0 7.0 0.00 0.00 0.00 39 1014.6
20260901163404 96 153 3.0 7.0 0.00 0.00 0.00 40 1014.5
20260901162904 96 161 3.0 7.0 0.00 0.00 0.00 41 1014.6
20260901162404 95 205 3.0 7.0 0.00 0.00 0.00 41 1014.7
20260901161904 95 146 3.0 5.0 0.00 0.00 0.00 40 1014.7
20260901160404 94 199 2.0 5.0 0.00 0.00 0.00 42 1014.7
20260901155903 94 175 2.0 6.0 0.00 0.00 0.00 42 1014.7
20260901155404 94 132 1.0 7.0 0.00 0.00 0.00 42 1014.7